GW2193 Weather Reports


time (UTC)temp
C
wind
direction
speed
KPH
gust
KPH
rain 1hr
cm
rain 24hr
cm
rain mn
cm
humidity
%
barometer
mb
20260510203055 24 167 8.0 19.3 0.00 0.10 0.03 100 1016.2
20260510201644 24 132 9.7 24.1 0.00 0.10 0.03 100 1016.0
20260510200145 25 142 12.9 22.5 0.00 0.10 0.03 98 1016.1
20260510194657 25 120 12.9 24.1 0.00 0.10 0.03 95 1016.0
20260510193053 25 157 12.9 22.5 0.00 0.10 0.03 96 1016.2
20260510191556 25 161 11.3 19.3 0.00 0.10 0.03 96 1016.3
20260510190105 25 123 11.3 20.9 0.00 0.10 0.03 94 1016.5
20260510184610 25 152 9.7 19.3 0.00 0.10 0.03 91 1016.9
20260510183056 25 164 9.7 17.7 0.00 0.10 0.03 90 1017.0
20260510181630 25 153 8.0 19.3 0.00 0.10 0.03 94 1017.1
20260510180059 25 142 9.7 19.3 0.00 0.10 0.03 96 1017.2
20260510174605 24 159 12.9 22.5 0.00 0.13 0.03 97 1017.2
20260510173054 25 183 11.3 24.1 0.00 0.13 0.03 96 1017.4
20260510171618 25 136 9.7 22.5 0.00 0.13 0.03 94 1017.5
20260510170053 25 156 11.3 19.3 0.00 0.13 0.03 95 1017.5
20260510164627 25 141 9.7 25.7 0.00 0.15 0.03 94 1017.5
20260510163057 25 155 6.4 19.3 0.00 0.15 0.03 94 1017.3
20260510161553 25 140 9.7 19.3 0.00 0.15 0.03 95 1017.2
20260510160053 26 178 9.7 16.1 0.00 0.15 0.03 94 1017.2
20260510154559 26 84 0.0 12.9 0.00 0.41 0.03 92 1017.2
20260510153058 26 84 3.2 11.3 0.00 0.41 0.03 92 1017.3
20260510151557 25 111 3.2 11.3 0.00 0.41 0.03 94 1017.2
20260510150113 25 0 3.2 8.0 0.00 0.41 0.03 98 1017.1
20260510144612 25 85 1.6 12.9 0.00 0.41 0.03 98 1017.1
20260510143055 25 73 3.2 11.3 0.00 0.41 0.03 98 1017.1
20260510141551 23 70 0.0 8.0 0.00 0.41 0.03 100 1017.2
20260510140054 22 104 1.6 6.4 0.00 0.41 0.03 100 1017.3
20260510134556 22 29 1.6 6.4 0.00 0.41 0.03 100 1017.1
20260510133053 22 55 0.0 6.4 0.00 0.41 0.03 100 1017.1
20260510131553 22 50 0.0 4.8 0.00 0.41 0.03 100 1017.1
20260510130056 21 26 1.6 6.4 0.00 0.41 0.03 100 1017.0
20260510124602 21 57 3.2 6.4 0.00 0.41 0.03 100 1016.7
20260510123053 20 0 0.0 4.8 0.00 0.41 0.03 100 1016.4
20260510121552 20 360 0.0 4.8 0.00 0.41 0.03 100 1016.1
20260510120051 20 0 1.6 4.8 0.00 0.41 0.03 100 1016.0
20260510114609 19 0 1.6 4.8 0.00 0.41 0.03 100 1015.6
20260510113059 19 360 0.0 3.2 0.00 0.41 0.03 100 1015.6
20260510111553 18 0 0.0 0.0 0.00 0.41 0.03 100 1015.2
20260510110100 18 0 0.0 0.0 0.00 0.41 0.03 100 1015.0
20260510104553 19 0 0.0 1.6 0.00 0.41 0.03 100 1014.6
20260510103056 19 360 0.0 3.2 0.00 0.41 0.03 100 1014.5
20260510101602 19 360 0.0 1.6 0.00 0.41 0.03 100 1014.4
20260510100125 19 0 0.0 1.6 0.00 0.41 0.03 100 1014.4
20260510094554 19 0 0.0 4.8 0.00 0.41 0.03 100 1014.4
20260510093132 19 360 0.0 1.6 0.00 0.41 0.03 100 1014.4
20260510091650 20 0 0.0 3.2 0.00 0.41 0.03 100 1014.2
20260510090057 20 360 0.0 4.8 0.00 0.41 0.03 100 1013.7
20260510084610 20 360 0.0 6.4 0.00 0.43 0.03 100 1013.5
20260510083055 20 360 0.0 6.4 0.00 0.43 0.03 100 1013.3
20260510081555 20 360 0.0 0.0 0.00 0.43 0.03 100 1013.0
20260510080100 20 0 0.0 4.8 0.00 0.43 0.03 100 1012.8
20260510074555 20 360 1.6 4.8 0.03 0.58 0.03 100 1012.7
20260510073057 20 360 1.6 3.2 0.03 0.58 0.03 100 1012.9
20260510071555 20 0 0.0 0.0 0.03 0.58 0.03 100 1012.8
20260510070113 20 0 0.0 3.2 0.03 0.58 0.03 100 1013.0
20260510064556 20 360 1.6 3.2 0.00 0.56 0.00 100 1013.0
20260510063051 20 0 0.0 3.2 0.00 0.56 0.00 100 1013.1
20260510061651 20 360 1.6 4.8 0.00 0.56 0.00 100 1013.2
20260510060053 20 360 1.6 3.2 0.00 0.56 0.00 100 1013.3
20260510054553 20 0 0.0 3.2 0.00 0.56 0.00 100 1013.7
20260510053057 20 0 0.0 3.2 0.00 0.56 0.00 100 1013.9
20260510051605 20 0 1.6 6.4 0.00 0.56 0.00 100 1014.0
20260510050108 20 0 0.0 3.2 0.00 0.56 0.00 100 1013.7
20260510044552 20 0 0.0 4.8 0.00 0.61 0.56 100 1013.4
20260510043058 20 0 0.0 3.2 0.00 0.61 0.56 100 1013.6
20260510041653 20 360 0.0 3.2 0.00 0.61 0.56 100 1013.8
20260510034557 20 0 0.0 3.2 0.00 0.61 0.56 100 1014.4
20260510033103 21 360 1.6 8.0 0.00 0.61 0.56 100 1014.5
20260510031552 21 360 1.6 12.9 0.00 0.61 0.56 100 1014.2
20260510030100 21 360 3.2 6.4 0.00 0.61 0.56 100 1014.0
20260510024552 21 360 0.0 3.2 0.00 0.61 0.56 100 1013.9
20260510023054 21 360 0.0 3.2 0.03 0.61 0.56 100 1013.6
20260510021641 21 360 1.6 9.7 0.03 0.61 0.56 100 1013.3
20260510020101 21 360 4.8 12.9 0.03 0.61 0.56 100 1013.2
20260510014559 21 360 1.6 8.0 0.03 0.61 0.56 100 1013.3
20260510013102 21 0 0.0 3.2 0.00 0.58 0.53 100 1013.9
20260510011555 21 360 1.6 4.8 0.00 0.58 0.53 100 1014.1
20260510010059 21 360 0.0 8.0 0.03 0.58 0.53 100 1014.2
20260510004552 21 360 6.4 24.1 0.03 0.64 0.53 100 1013.5
20260510003050 21 360 11.3 20.9 0.03 0.64 0.53 100 1012.6
20260510001557 21 360 8.0 17.7 0.03 0.64 0.53 100 1012.6
20260509234553 21 360 4.8 9.7 0.03 0.74 0.51 100 1012.7
20260509233053 21 0 0.0 8.0 0.03 0.74 0.51 100 1013.0
20260509231558 21 360 1.6 4.8 0.03 0.74 0.51 100 1013.0
20260509230054 21 360 1.6 8.0 0.03 0.74 0.51 100 1013.1
20260509224553 21 360 3.2 8.0 0.00 0.74 0.48 100 1012.8
20260509223053 21 360 3.2 6.4 0.00 0.74 0.48 100 1012.7
20260509221627 21 360 3.2 12.9 0.00 0.74 0.48 100 1012.8
20260509220054 21 360 4.8 12.9 0.00 0.74 0.48 100 1012.2
20260509214553 22 360 3.2 6.4 0.00 0.74 0.48 100 1012.5
20260509213111 22 360 0.0 3.2 0.00 0.74 0.48 100 1012.7
20260509211601 22 360 1.6 6.4 0.00 0.74 0.48 100 1012.7
20260509210055 22 360 1.6 12.9 0.00 0.74 0.48 100 1012.7
20260509204555 22 360 3.2 17.7 0.00 0.74 0.48 100 1012.6